Location: Hursley
(51.0167°N, 1.4000°W)
Time: 08:47:52
(UTC+00:00)

Daily predictions for brighter satellites

Satellite Brightness Start Highest point End
(mag) Time Altitude Azimuth Time Altitude Azimuth Time Altitude Azimuth
ATLAS 2AS CENTAUR R/B 4.1 18:54:52 10° NW 19:01:59 34° NNE 19:08:42 10° ENE
SJ-11-01 4.3 19:01:55 10° SSE 19:06:36 74° ENE 19:11:19 10° N
H-2A R/B 2.2 19:02:28 10° SSE 19:07:40 59° ENE 19:12:45 10° N
STARLINK-1111 3.8 19:03:40 10° WNW 19:07:49 71° N 19:11:57 10° E
Cosmos 2360 Rocket 4.4 19:03:37 10° W 19:08:21 27° NW 19:13:08 10° NNE
STARLINK-1094 3.9 19:07:24 10° WNW 19:11:23 63° SSW 19:15:21 10° SE
Okean 1 Rocket 3.9 19:07:24 10° SSW 19:11:43 57° WNW 19:16:01 10° N
Cosmos 1745 Rocket 4.1 19:05:32 10° N 19:11:55 87° E 19:18:10 10° S
ERBS 2.3 19:08:34 10° WSW 19:11:58 88° SE 19:15:21 10° ENE
STARLINK-1073 3.8 19:08:39 10° WNW 19:12:48 72° N 19:16:57 10° E
Cosmos 1544 Rocket 4.1 19:09:26 10° SSE 19:13:28 37° E 19:17:33 10° NNE
Cosmos 2297 3.8 19:07:53 10° NNW 19:13:34 68° ENE 19:19:14 10° SE
USA 234 3.9 19:09:44 10° ENE 19:15:33 33° SE 19:21:18 10° SSW
HJ-1C 3.8 19:12:17 10° S 19:15:36 67° WSW 19:18:58 10° NNW
NOSS 0 Rocket 4.0 19:09:30 10° SSW 19:15:44 90° SSE 19:21:58 10° NNE
STARLINK-1117 3.9 19:11:56 10° WNW 19:15:54 60° SSW 19:19:51 10° SE
Meteor 2-5 Rocket 3.9 19:11:36 10° NNW 19:17:19 79° W 19:22:53 10° S
STARLINK-1121 3.7 19:13:39 10° WNW 19:17:48 74° N 19:21:53 10° E
STARLINK-1192 4.4 19:15:47 10° SSW 19:19:22 31° SE 19:22:59 10° E
ADEOS Rocket 3.5 19:13:01 10° NNE 19:20:01 75° WNW 19:26:14 10° SSW
STARLINK-1078 4.0 19:16:26 10° WNW 19:20:23 57° SSW 19:24:20 10° SE
Cosmos 2237 Rocket 2.2 19:16:08 10° SSW 19:21:46 84° ESE 19:27:26 10° NNE
Cosmos 1805 3.2 19:18:04 10° S 19:21:59 89° E 19:25:56 10° N
STARLINK-1106 3.7 19:18:37 10° WNW 19:22:46 76° NNE 19:26:39 12° E
Cosmos 1302 Rocket 4.1 19:18:11 10° NNW 19:23:26 61° ENE 19:28:40 10° SE
STARLINK-1244 4.3 19:20:29 10° SSW 19:24:08 33° SE 19:27:48 10° E
STARLINK-1201 3.5 19:21:19 10° SW 19:24:25 40° SSE 19:27:30 10° ENE
STARLINK-1108 4.1 19:20:58 10° WNW 19:24:53 54° SSW 19:28:48 10° SE
Cosmos 2278 Rocket 3.8 19:20:26 10° NW 19:25:37 37° WSW 19:30:46 10° S
CZ-2C R/B 3.7 19:22:53 10° NE 19:26:48 21° E 19:30:43 10° SE
STARLINK-1112 3.7 19:23:37 10° WNW 19:27:47 78° NNE 19:31:27 13° E
STARLINK-1138 4.2 19:25:06 10° SSW 19:28:48 35° SE 19:32:32 10° ENE
STARLINK-1066 4.4 19:26:25 10° W 19:29:15 30° SW 19:32:04 10° SSE
Cosmos 1269 Rocket 4.2 19:24:12 10° S 19:29:17 50° ESE 19:34:24 10° NNE
STARLINK-1071 4.1 19:25:29 10° WNW 19:29:24 51° SSW 19:33:08 11° SE
STARLINK-1081 4.4 19:26:54 10° W 19:29:41 29° SW 19:32:27 10° SSE
STARLINK-1209 2.9 19:26:50 10° SW 19:29:42 52° SSE 19:32:14 12° ENE
STARLINK-1070 4.4 19:27:21 10° W 19:30:07 29° SW 19:32:53 10° SSE
STARLINK-1124 4.2 19:26:22 10° WNW 19:30:24 51° SSW 19:34:14 11° SE
STARLINK-1069 4.4 19:27:45 10° W 19:30:33 29° SW 19:33:21 10° SSE
STARLINK-1228 2.8 19:27:50 10° SW 19:30:39 53° SSE 19:33:08 13° ENE
STARLINK-1085 4.5 19:28:12 10° W 19:31:00 29° SW 19:33:48 10° SSE
STARLINK-1086 4.5 19:28:43 10° W 19:31:28 29° SW 19:34:13 10° SSE
STARLINK-1095 4.5 19:29:10 10° W 19:31:55 28° SW 19:34:39 10° SSE
STARLINK-1077 4.5 19:29:36 10° W 19:32:21 28° SW 19:35:05 10° SSE
Meteor 1-24 Rocket 3.8 19:27:05 10° NNW 19:32:41 79° W 19:38:03 10° S
STARLINK-1128 3.6 19:28:37 10° WNW 19:32:47 80° NNE 19:36:15 14° ESE
STARLINK-1075 4.5 19:30:04 10° W 19:32:49 28° SW 19:35:33 10° SSE
SeaSat 1 3.8 19:28:22 10° NNE 19:33:03 44° NW 19:37:43 10° WSW
Cosmos 1553 Rocket 4.4 19:27:04 10° SSW 19:33:06 68° WNW 19:39:12 10° N
STARLINK-1143 4.1 19:29:48 10° SW 19:33:34 38° SE 19:37:07 11° E
STARLINK-1110 4.2 19:30:01 10° WNW 19:33:54 48° SSW 19:37:29 12° SE
SL-8 R/B 3.8 19:29:13 10° WSW 19:33:57 65° S 19:38:02 14° E
CZ-4 R/B 4.3 19:33:03 10° SW 19:35:37 17° W 19:38:12 10° NW
ARGOS 3.1 19:30:21 10° SSE 19:35:46 83° ENE 19:41:12 10° NNW
STARLINK-1113 3.6 19:33:36 10° WNW 19:37:45 82° NNE 19:41:02 16° ESE
MOS 1 4.4 19:34:26 10° SSE 19:40:05 86° WSW 19:45:48 10° NNW
Cosmos 1470 3.1 19:38:37 10° SSE 19:42:16 42° E 19:45:58 10° NNE
STARLINK-1119 3.6 19:38:34 10° WNW 19:42:43 85° NNE 19:45:48 18° ESE
STARLINK-1122 4.4 19:39:12 10° WNW 19:43:02 43° SSW 19:46:17 13° SE
STARLINK-1241 3.9 19:40:08 10° SW 19:43:57 43° SSE 19:47:06 14° E
STARLINK-1233 3.0 19:41:02 10° SW 19:44:07 55° SSE 19:46:21 17° E
STARLINK-1212 3.0 19:41:30 10° SW 19:44:33 55° SSE 19:46:46 17° E
STARLINK-1105 3.0 19:41:56 10° SW 19:45:01 55° SSE 19:47:13 17° E
STARLINK-1206 3.0 19:42:25 10° SW 19:45:29 56° SSE 19:47:38 18° E
STARLINK-1247 2.9 19:42:52 10° SW 19:45:56 56° SSE 19:48:04 18° E
ISS -3.8 19:42:38 10° W 19:46:00 87° N 19:48:11 20° E
STARLINK-1227 3.0 19:43:16 10° SW 19:46:21 56° SSE 19:48:30 18° E
ATLAS CENTAUR R/B 4.0 19:43:30 10° WNW 19:46:24 17° NNW 19:49:12 10° NNE
Cosmos 2315 Rocket 4.0 19:40:23 10° S 19:46:36 63° E 19:52:53 10° NNE
STARLINK-1218 2.9 19:43:45 10° SW 19:46:49 57° SSE 19:48:55 18° E
SL-08 RB Rocket 3.6 19:42:22 10° SSE 19:46:53 77° ENE 19:51:28 10° NNW
STARLINK-1226 2.9 19:44:13 10° SW 19:47:17 57° SSE 19:49:23 18° E
STARLINK-1126 4.5 19:43:51 10° WNW 19:47:39 40° SSW 19:50:44 14° SSE
STARLINK-1254 2.9 19:44:37 10° SW 19:47:42 58° SSE 19:49:49 18° E
STARLINK-1114 3.6 19:43:34 10° WNW 19:47:44 88° NNE 19:50:36 19° ESE
SJ-6B 2.9 19:43:54 10° SSE 19:47:58 86° WSW 19:52:08 10° NNW
STARLINK-1215 2.9 19:45:07 10° SW 19:48:11 58° SSE 19:50:13 19° E
STARLINK-1239 3.9 19:44:40 10° SW 19:48:31 45° SSE 19:51:30 16° E
MetOp-A 4.2 19:43:17 10° SSE 19:48:34 64° ENE 19:53:52 10° N
STARLINK-1231 2.9 19:45:33 10° SW 19:48:37 58° SSE 19:50:39 19° E
Resurs 1-3 3.8 19:44:43 11° SE 19:48:48 53° ENE 19:53:06 10° N
STARLINK-1232 2.9 19:46:27 10° SW 19:49:31 59° SSE 19:51:32 19° E
STARLINK-1217 2.9 19:46:54 10° SW 19:49:59 59° SSE 19:51:58 20° E
Cosmos 1758 3.6 19:46:14 10° SSE 19:50:10 48° E 19:54:08 10° NNE
STARLINK-1208 2.9 19:47:19 10° SW 19:50:25 60° SSE 19:52:25 20° E
STARLINK-1229 2.9 19:47:47 10° SW 19:50:52 60° SSE 19:52:49 20° E
BREEZE-M DEB (TANK) 3.9 19:42:49 10° W 19:51:01 76° S 19:53:10 21° ESE
STARLINK-1271 2.9 19:48:15 10° SW 19:51:20 60° SSE 19:53:16 20° E
STARLINK-1270 2.9 19:48:42 10° SW 19:51:47 61° SSE 19:53:41 21° E
STARLINK-1154 2.9 19:49:08 10° SW 19:52:13 61° SSE 19:54:07 21° E
STARLINK-1130 (DARKSAT) 3.6 19:48:32 10° WNW 19:52:42 89° SSW 19:55:22 21° ESE
STARLINK-1240 3.8 19:49:14 10° SW 19:53:06 48° SSE 19:55:56 17° E
STARLINK-1197 2.8 19:50:03 10° WSW 19:53:07 62° SSE 19:54:59 21° E
STARLINK-1189 2.8 19:50:30 10° WSW 19:53:35 62° SSE 19:55:26 22° E
Cosmos 2369 Rocket 2.6 19:48:20 10° NNW 19:53:55 50° NE 19:57:50 19° ESE
STARLINK-1187 2.8 19:51:18 10° WSW 19:54:26 69° SSE 19:56:21 21° ENE
CZ-2C R/B 3.3 19:49:26 10° S 19:54:28 67° WSW 19:59:18 10° NNW
STARLINK-1188 2.8 19:51:24 10° WSW 19:54:28 63° SSE 19:56:17 22° E
STARLINK-1198 2.8 19:51:37 10° WSW 19:54:42 63° SSE 19:56:31 22° E
STARLINK-1235 2.8 19:51:58 10° WSW 19:55:07 75° SSE 19:57:05 21° ENE
NOSS 2-1 (C) 4.4 19:52:34 10° WSW 19:55:50 40° NW 19:59:37 10° NE
Resurs 01 Rocket 2.0 19:53:04 17° SE 19:56:11 45° ENE 20:00:25 10° N
STARLINK-1199 2.8 19:53:18 10° WSW 19:56:25 65° SSE 19:58:12 23° E
STARLINK-67 2.3 19:54:14 10° WSW 19:56:49 85° NNW 19:58:04 27° ENE
FREGAT/IRIS 3.9 19:54:18 10° SSW 19:56:51 36° W 19:59:26 10° NNW
STARLINK-1191 2.8 19:53:46 10° WSW 19:56:53 65° SSE 19:58:39 23° E
STARLINK-1210 2.8 19:54:13 10° WSW 19:57:19 66° SSE 19:59:04 23° E
STARLINK-1084 3.6 19:53:30 10° WNW 19:57:40 86° SSW 20:00:09 23° ESE
STARLINK-1216 3.7 19:53:48 10° SW 19:57:43 51° SSE 20:00:23 19° E
STARLINK-1221 2.8 19:54:40 10° WSW 19:57:47 66° SSE 19:59:33 23° E
STARLINK-1219 2.8 19:55:07 10° WSW 19:58:14 67° SSE 19:59:57 24° E
STARLINK-1222 2.8 19:55:34 10° WSW 19:58:40 67° SSE 20:00:22 24° E
Cosmos 1733 4.0 19:55:09 10° SSW 19:58:50 54° WNW 20:02:35 10° N
STARLINK-1211 2.8 19:56:01 10° WSW 19:59:08 67° SSE 20:00:48 24° E
STARLINK-1214 2.8 19:56:28 10° WSW 19:59:35 68° SSE 20:01:15 25° E
STARLINK-1245 2.8 19:56:57 10° WSW 20:00:04 68° SSE 20:01:40 25° E
STARLINK-1238 2.8 19:57:23 10° WSW 20:00:30 69° SSE 20:02:07 25° E
IRIDIUM 114 4.4 19:55:25 10° N 20:00:36 57° E 20:05:35 11° SSE
Meteor 1-22 Rocket 4.4 19:55:49 10° SSW 20:01:05 69° WNW 20:06:24 10° N
STARLINK-1205 2.8 19:58:19 10° WSW 20:01:25 69° SSE 20:02:58 26° E
STARLINK-1204 2.8 19:58:44 10° WSW 20:01:50 70° SSE 20:03:23 27° E
STARLINK-1237 3.6 19:58:26 10° SW 20:02:21 54° SSE 20:04:52 21° E
Meteor 2-15 Rocket 4.4 19:56:40 10° S 20:02:36 59° E 20:08:34 10° NNE
STARLINK-1098 3.6 19:58:29 10° WNW 20:02:38 83° SSW 20:04:55 26° ESE
Cosmos 494 Rocket 4.3 19:58:19 10° SSW 20:03:27 69° WNW 20:08:40 10° NNE
SL-14 R/B 4.2 20:00:47 10° NNW 20:04:44 50° W 20:08:38 10° S
SPOT 3 Rocket 3.6 20:01:30 10° SSE 20:06:45 86° WSW 20:12:00 10° NNW
Cosmos 1726 3.1 20:06:29 27° E 20:06:47 27° E 20:10:00 10° NNE
Meteor 1-21 Rocket 4.2 20:01:17 10° N 20:06:53 67° ENE 20:11:31 15° SSE
STARLINK-1202 3.6 20:03:01 10° SW 20:06:58 57° SSE 20:09:19 23° E
STARLINK-1123 3.6 20:03:29 10° WNW 20:07:38 80° SSW 20:09:44 28° ESE
Cosmos 1709 Rocket 4.4 20:03:19 10° NNW 20:09:30 66° W 20:15:34 10° S
IRIDIUM 103 4.3 20:04:34 10° N 20:09:48 68° E 20:14:44 11° SSE
CZ-4C R/B 4.1 20:05:57 10° WNW 20:11:01 30° NNW 20:16:56 10° NE
Cosmos 2228 4.1 20:11:03 24° E 20:11:06 24° E 20:14:33 10° NE
STARLINK-1246 3.5 20:08:04 10° SW 20:12:05 61° SSE 20:14:18 25° E
MOS 1 Rocket 3.7 20:07:03 10° NNE 20:12:06 50° E 20:17:19 10° S
STARLINK-1097 3.6 20:08:26 10° WNW 20:12:35 76° SSW 20:14:29 31° ESE
Meteor 2-15 4.4 20:07:58 10° S 20:14:02 85° E 20:20:08 10° NNE
Cosmos 292 Rocket 3.7 20:11:37 10° NNW 20:16:25 72° ENE 20:19:07 26° SE
STARLINK-1099 3.6 20:13:26 10° WNW 20:17:34 73° SSW 20:19:17 34° SE
Cosmos 1943 Rocket 2.1 20:13:43 10° NNW 20:19:17 87° ENE 20:22:52 23° SSE
Cosmos 1943 4.1 20:19:28 25° E 20:19:28 25° E 20:23:55 10° NE
STARLINK-1224 3.4 20:16:54 10° WSW 20:20:55 67° SSE 20:22:45 30° E
NOSS 3-4 (A) 4.4 20:14:58 10° NW 20:21:24 46° NNE 20:25:57 22° E
NOSS 3-4 (C) 4.4 20:15:03 10° NW 20:21:30 46° NNE 20:26:03 22° E
Cosmos 2074 Rocket 4.0 20:15:45 10° N 20:22:01 70° ENE 20:26:45 18° SSE
STARLINK-1104 3.7 20:18:26 10° WNW 20:22:34 69° SSW 20:24:04 37° SE
STARLINK-1225 3.4 20:21:36 10° WSW 20:25:37 71° SSE 20:27:17 33° E
Cosmos 1328 4.3 20:22:23 10° N 20:26:11 39° ENE 20:26:45 37° E
USA 186 4.4 20:23:59 10° SW 20:26:43 22° W 20:29:25 10° NW
STARLINK-1203 3.3 20:23:15 10° WSW 20:27:12 75° SSE 20:28:44 35° E
STARLINK-1144 3.7 20:23:23 10° WNW 20:27:30 66° SSW 20:28:50 40° SE
IRIDIUM 106 4.3 20:22:50 10° N 20:28:06 87° W 20:32:57 12° S
Cosmos 1437 2.8 20:25:43 10° N 20:28:32 50° ENE 20:28:32 50° ENE
STARLINK-1234 2.8 20:26:32 10° W 20:29:32 75° NNW 20:29:59 59° NE
Cosmos 1626 4.3 20:26:27 10° NNW 20:29:35 26° W 20:32:43 10° SSW
STARLINK-1230 3.4 20:26:13 10° WSW 20:30:14 74° SSE 20:31:44 37° E
Cosmos 1953 2.1 20:29:29 21° S 20:32:03 74° E 20:36:02 10° NNE
STARLINK-1103 3.8 20:28:22 10° WNW 20:32:28 62° SSW 20:33:37 43° SSE
Meteor 2-10 4.1 20:28:33 16° S 20:32:47 58° E 20:38:14 10° NNE
NOSS 3-3 (A) 4.4 20:27:55 10° S 20:33:12 36° ESE 20:39:06 10° NE
NOSS 3-3 (C) 4.4 20:28:02 10° S 20:33:19 36° ESE 20:39:11 10° NE
Cosmos 2084 Rocket 3.6 20:29:10 10° NW 20:33:38 74° SW 20:35:19 37° SSE
SPOT 1/Viking Rocket 4.1 20:32:06 32° ESE 20:33:44 40° ENE 20:38:36 10° N
STARLINK-1243 3.4 20:30:55 10° WSW 20:34:57 78° SSE 20:36:16 41° E
Spot 2 Rocket 3.6 20:33:07 33° SE 20:35:15 59° ENE 20:40:18 10° N
SL-16 R/B 2.4 20:29:53 10° SW 20:35:33 73° WNW 20:41:15 10° NNE
Cosmos 1602 Rocket 4.5 20:32:37 10° NNW 20:36:56 49° W 20:41:06 11° SSW
STARLINK-1101 3.8 20:33:22 10° WNW 20:37:27 59° SSW 20:38:25 45° SSE
STARLINK-1236 3.4 20:35:35 10° WSW 20:39:37 81° SSE 20:40:45 46° E
Aureole 2 Rocket 2.5 20:38:39 10° NNW 20:42:10 73° WSW 20:42:44 57° S
STARLINK-1102 3.9 20:38:21 10° WNW 20:42:25 55° SSW 20:43:11 47° SSE
IGS 5A 3.8 20:42:14 43° E 20:42:36 44° ENE 20:46:34 10° N
Aureole 3 3.8 20:38:37 10° SSW 20:42:41 75° WNW 20:47:56 10° N
DMSP B5D2-2 4.1 20:40:07 10° NNE 20:45:21 82° WNW 20:50:35 10° SSW
STARLINK-1111 3.9 20:43:20 10° WNW 20:47:22 52° SSW 20:47:58 47° S
H-2A R/B 4.2 20:43:11 10° SW 20:47:26 24° W 20:51:39 10° NW
ERBS 3.9 20:45:29 10° WNW 20:48:35 32° N 20:49:56 23° NNE
STARLINK-1269 3.4 20:45:00 10° WSW 20:49:02 87° SSE 20:49:49 57° ENE
Terra 3.0 20:49:37 27° ENE 20:49:54 27° ENE 20:53:54 10° N
CARTOSAT-1 4.4 20:50:52 34° ENE 20:50:52 34° ENE 20:54:45 10° N
Cosmos 2341 Rocket 4.4 20:46:01 10° N 20:52:07 46° ENE 20:53:51 37° ESE
STARLINK-1073 4.0 20:48:19 10° WNW 20:52:20 49° SSW 20:52:45 47° S
Cosmos 1703 3.1 20:48:55 10° N 20:52:52 76° E 20:53:09 71° ESE
STARLINK-1200 3.4 20:49:41 10° WSW 20:53:44 90° WNW 20:54:21 64° ENE
ATLAS 2AS CENTAUR R/B 3.1 20:46:42 10° NW 20:54:27 63° NE 20:57:42 35° ESE
Cosmos 1726 Rocket 3.7 20:55:09 53° E 20:55:09 53° E 20:59:19 10° NNE
Cosmos 1825 Rocket 3.6 20:51:59 10° NNW 20:56:25 74° W 20:57:49 42° S
Cosmos 1603 3.7 20:53:26 20° S 20:57:12 57° ESE 21:02:42 10° NE
STARLINK-1121 4.1 20:53:19 10° WNW 20:57:18 46° SSW 20:57:32 46° SSW
Meteor 1-16 Rocket 4.0 20:54:16 25° S 20:57:26 78° E 21:02:55 10° NNE
STARLINK-1192 3.4 20:54:20 10° WSW 20:58:24 87° NNW 20:58:49 71° ENE
USA 234 3.2 20:52:32 10° ENE 20:59:07 85° SSE 21:05:42 10° WSW
Cosmos 2327 Rocket 4.4 20:53:55 10° N 21:00:12 90° ENE 21:03:23 32° S
STARLINK-1201 3.6 20:57:20 10° W 21:00:05 56° WNW 21:00:05 56° WNW
STARLINK-1106 4.2 20:58:18 10° WNW 21:02:15 43° SSW 21:02:18 43° SSW
STARLINK-1244 3.5 20:59:09 10° WSW 21:03:12 84° NNW 21:03:26 78° NE
MetOp-B 4.2 21:01:14 35° S 21:03:34 76° WSW 21:08:58 10° NNW
STARLINK-1209 4.4 21:01:40 10° W 21:03:28 32° WNW 21:03:28 32° WNW
STARLINK-1228 4.5 21:02:46 10° W 21:04:30 31° WNW 21:04:30 31° WNW
Cosmos 1758 Rocket 4.2 21:01:24 10° NNW 21:05:40 51° W 21:07:20 32° SSW
Cosmos 2237 Rocket 4.4 21:01:56 10° W 21:06:32 25° NW 21:11:10 10° NNE
STARLINK-1112 4.4 21:03:19 10° WNW 21:07:06 41° SW 21:07:06 41° SW
CZ-2C R/B 2.9 21:02:26 10° N 21:07:36 65° WNW 21:12:41 10° SSW
STARLINK-1138 3.5 21:03:51 10° WSW 21:07:55 82° NNW 21:07:58 82° N
COSMOS 2455 3.6 21:03:44 10° NNW 21:09:26 40° NE 21:11:09 33° ENE
Meteor 1-11 4.2 21:04:34 10° NNW 21:10:25 85° ENE 21:12:06 49° SSE
Cosmos 1953 Rocket 3.6 21:07:37 10° NNW 21:12:03 75° W 21:12:43 62° SSW
STARLINK-1143 3.6 21:08:39 10° WSW 21:12:34 78° NW 21:12:34 78° NW
Iridium 4 Rocket 4.5 21:09:01 10° NNE 21:11:53 27° NE 21:11:53 27° NE
Cosmos 1295 Rocket 4.4 21:08:33 10° N 21:14:50 81° E 21:16:48 47° SSE
Cosmos 1461 4.1 21:10:45 10° NNW 21:14:51 35° NE 21:15:09 35° NE
SL-8 R/B 4.0 21:11:37 10° W 21:16:00 50° SSW 21:16:00 50° SSW
Cosmos 2251 Rocket 3.7 21:12:49 10° SSW 21:18:11 75° WNW 21:23:36 10° NNE
Meteor 2-17 Rocket 4.5 21:12:29 10° NNW 21:18:39 79° W 21:21:00 40° S
Cosmos 2218 Rocket 4.3 21:14:56 10° N 21:20:51 46° ENE 21:21:25 44° E
Cosmos 1606 Rocket 3.7 21:20:19 56° SW 21:21:07 70° WNW 21:25:34 10° N
Cosmos 1656 Rocket 3.6 21:15:50 10° NNW 21:21:34 84° WSW 21:22:37 61° SSE
ISS -1.7 21:19:33 10° W 21:21:09 23° W 21:21:09 23° W
STARLINK-1241 3.9 21:18:59 10° W 21:22:24 60° WNW 21:22:24 60° WNW
ATLAS CENTAUR R/B 4.1 21:25:05 10° NNW 21:26:54 12° N 21:28:40 10° NNE
STARLINK-1239 4.1 21:23:35 10° W 21:26:49 54° WNW 21:26:49 54° WNW
ERS-1 Rocket 2.8 21:28:47 79° SE 21:29:05 86° ENE 21:34:09 10° NNW
USA 245 4.5 21:27:48 45° SSW 21:29:07 59° W 21:34:54 10° NNW
STARLINK-1240 4.3 21:28:13 10° W 21:31:15 48° WNW 21:31:15 48° WNW
Resurs 01 Rocket 3.6 21:30:38 16° SW 21:32:53 24° W 21:36:28 10° NW
Cosmos 2181 Rocket 4.2 21:33:10 50° E 21:33:10 50° E 21:39:03 10° NNE
Cosmos 2154 Rocket 4.4 21:27:25 10° NNW 21:33:42 62° W 21:36:22 35° SSW
SPOT 5 2.8 21:35:18 66° N 21:35:18 66° N 21:39:07 10° NNW
Cosmos 1908 4.2 21:37:51 45° NNW 21:37:51 45° NNW 21:40:49 10° N
Cosmos 2369 Rocket 3.4 21:32:40 10° NW 21:37:47 35° WSW 21:39:39 28° SW
Cosmos 1726 4.1 21:40:56 24° W 21:41:57 27° WNW 21:45:13 10° N
Landsat 7 4.4 21:45:26 47° WSW 21:45:50 48° W 21:50:28 10° NNW
Cosmos 921 Rocket 3.9 21:43:09 10° NNW 21:46:09 44° N 21:46:09 44° N
Cosmos 967 Rocket 4.4 21:41:03 10° SW 21:47:31 90° SE 21:54:04 10° NE
Cosmos 2228 4.1 21:47:50 38° W 21:48:26 40° WNW 21:52:31 10° N
Cosmos 1340 Rocket 4.4 21:57:44 33° N 21:57:44 33° N 22:00:05 10° N
SL-8 Rocket 3.8 21:49:44 10° N 21:56:04 89° E 21:56:35 77° SSE
Cosmos 2058 Rocket 3.9 22:01:24 50° NW 22:01:24 50° NW 22:05:17 10° N
CZ-4C R/B 4.1 21:55:50 10° NW 22:01:27 31° NNE 22:06:33 15° ENE
Cosmos 1943 Rocket 4.3 21:58:43 10° WNW 22:02:17 18° W 22:04:24 14° SW
Cosmos 864 Rocket 4.3 21:56:36 10° N 22:02:54 79° E 22:02:57 79° E
Cosmos 1943 3.4 22:01:06 42° WSW 22:02:57 66° WNW 22:08:39 10° NNE
Cosmos 2366 rocket 3.8 21:57:05 10° N 22:03:16 82° ENE 22:03:19 82° E
Mayak 1.1 22:05:55 10° NNE 22:06:55 17° NNE 22:06:55 17° NNE
NOSS 3-4 (A) 3.8 22:05:53 10° NW 22:12:45 68° SW 22:13:24 65° SSW
NOSS 3-4 (C) 3.8 22:05:59 10° NW 22:12:52 68° SW 22:13:29 65° SSW
Cosmos 1959 Rocket 4.5 22:13:27 10° NNW 22:19:49 77° W 22:19:57 77° WSW
NOSS 3-3 (A) 4.4 22:17:45 10° WSW 22:23:45 63° NW 22:30:38 10° NE
NOSS 3-3 (C) 4.3 22:17:51 10° WSW 22:23:51 64° NW 22:30:44 10° NE
Cosmos 1697 Rocket 4.0 22:21:01 10° NNW 22:26:00 30° NE 22:26:03 30° NE
SL-08 R/B 4.5 22:20:39 10° N 22:26:15 75° NNE 22:26:15 75° NNE
Terra 2.9 22:28:29 40° WNW 22:28:29 40° WNW 22:32:04 10° NNW
USA 234 3.7 22:35:36 10° ENE 22:41:59 58° N 22:48:21 10° W
Cosmos 407 Rocket 4.4 22:44:53 44° NNW 22:44:53 44° NNW 22:48:54 10° NNE
ATLAS 2AS CENTAUR R/B 3.4 22:38:09 10° NW 22:45:08 44° WSW 22:45:08 44° WSW
Cosmos 1821 Rocket 4.2 22:41:23 10° N 22:46:52 65° NNE 22:46:52 65° NNE
Cosmos 1980 Rocket 3.7 22:46:07 10° NNW 22:50:53 27° NE 22:50:54 27° NE
COSMOS 2455 3.6 22:49:43 10° NW 22:54:18 46° WNW 22:54:18 46° WNW
ATLAS CENTAUR R/B 4.1 23:04:01 10° NNW 23:05:26 17° N 23:05:26 17° N
Cosmos 1934 Rocket 4.4 23:02:52 10° N 23:08:00 56° NNE 23:08:00 56° NNE
ATLAS 5 CENTAUR R/B 4.2 23:39:11 17° NE 23:39:11 17° NE 23:40:24 10° NE
Mayak 1.4 23:42:02 10° NNW 23:43:29 17° NNW 23:43:29 17° NNW
CZ-4C R/B 3.1 23:44:34 10° NW 23:51:19 60° NE 23:51:42 59° NE
